Regional Weather Roundup
Issued by NWS

Home | Current Version | Previous Version | Text Only | Print | Product List | Glossary On
Versions: 1 2 3 4 5 6 7 8 9 10 11 12 13 14 15 16 17 18 19 20 21 22 23 24 25 26 27 28 29 30 31 32 33 34 35 36 37 38 39 40 41 42 43 44 45 46 47 48 49 50
000
ASCA42 TJSJ 251010
RWRPR
PUERTO RICO/U.S. VIRGIN ISLANDS HOURLY WEATHER ROUNDUP
NATIONAL WEATHER SERVICE SAN JUAN PR
600 AM AST MON JUL 25 2016

PRZ001-004-251100-
PUERTO RICO

CITY           SKY/WX    TMP DP  RH WIND       PRES   REMARKS
SAN JUAN LMM   PTCLDY    79  73  83 CALM      30.00S
CEIBA          PTCLDY    77  75  94 NE3       30.03S
$$

PRZ006-007-251100-
U.S. VIRGIN ISLANDS

CITY           SKY/WX    TMP DP  RH WIND       PRES   REMARKS
CHARLOTTE AMA  CLEAR     82  75  78 NE6       29.99
CHRISTIANSTED  PTCLDY    79  75  89 NE6       30.00R
$$

HOURLY WEATHER ROUNDUP FOR THE NEWS MEDIA

CITY           SKY/WX    TMP DP  RH WIND       PRES   REMARKS
ORLANDO        CLEAR     75  72  90 CALM      30.05S
NEW YORK       LGT RAIN  75  70  84 SW8       29.96R
NEWARK         CLOUDY    79  67  66 S6        29.94R
CHICAGO        MOCLDY    73  69  87 W6        29.95F
HARTFORD       CLEAR     65  63  93 CALM      29.95R
BOSTON         CLOUDY    68  63  84 CALM      29.94F
DALLAS         PTCLDY    83  73  72 SE7       29.95R
PHILADELPHIA   CLOUDY    75  73  93 N7        29.96
LOS ANGELES    PTCLDY    70  65  84 CALM      29.92S
WASHINGTON DC  FAIR      75  72  90 S3        29.97S


USA.gov is the U.S. government's official web portal to all federal, state and local government web resources and services.